Bookmark and Share
Track history (hours):
 

Ken Orchid

Last reported at 2014-Apr-13 04:28 UTC. Time now 2014-Apr-17 00:58 UTC.
Position N 26°53' E 052°38'.

Length 169 m; draft 7.5 m.

Type: Cargo ship. MMSI: 636014693.

NotesDate/timePositionNaut miles runAvg speedWind from/ knotsBaromVisibWave heightAir tempDewpointWater temp
2014-Apr-13 04:28N 26°53' E 052°38'1212.3
2014-Apr-13 03:31N 26°48' E 052°50'1612.7
2014-Apr-13 02:16N 26°39' E 053°05'912.9
2014-Apr-13 01:33N 26°34' E 053°13'1212.1
2014-Apr-13 00:33N 26°24' E 053°21'2912.4
2014-Apr-12 22:13N 25°58' E 053°33'2612.2
2014-Apr-12 20:08N 25°34' E 053°44'711.9
2014-Apr-12 19:33N 25°31' E 053°51'1212.1
2014-Apr-12 18:33N 25°26' E 054°03'1212.1
2014-Apr-12 17:33N 25°22' E 054°16'1212.2
2014-Apr-12 16:33N 25°18' E 054°29'1212.1
2014-Apr-12 15:33N 25°13' E 054°41'1212.0
2014-Apr-12 14:33N 25°09' E 054°54'1010.1
2014-Apr-12 13:33N 25°02' E 055°02'4 4.1
2014-Apr-12 12:33N 24°59' E 055°04'0 0.0
2014-Apr-12 11:31N 24°59' E 055°04'0 0.0
2014-Apr-12 10:28N 24°59' E 055°04'0 0.0
2014-Apr-12 09:28N 24°59' E 055°04'0 0.0
2014-Apr-12 05:28N 24°59' E 055°04'0 0.0
2014-Apr-12 04:31N 24°59' E 055°04'0 0.0
2014-Apr-12 03:28N 24°59' E 055°04'0 0.0
2014-Apr-12 02:31N 24°59' E 055°04'0 0.0
2014-Apr-12 01:25N 24°59' E 055°04'0 0.0
2014-Apr-11 22:22N 24°59' E 055°04'0 0.0
2014-Apr-11 21:31N 24°59' E 055°04'0 0.0
2014-Apr-11 20:31N 24°59' E 055°04'0 0.0
2014-Apr-11 19:28N 24°59' E 055°04'0 0.0
2014-Apr-11 18:31N 24°59' E 055°04'0 0.0
2014-Apr-11 17:31N 24°59' E 055°04'0 0.0
2014-Apr-11 16:31N 24°59' E 055°04'0 0.0
2014-Apr-11 15:25N 24°59' E 055°04'0 0.0
2014-Apr-11 14:31N 24°59' E 055°04'0 0.0
2014-Apr-11 13:31N 24°59' E 055°04'0 0.0
2014-Apr-11 05:25N 24°59' E 055°04'0 0.0
2014-Apr-11 04:31N 24°59' E 055°04'0 0.0
2014-Apr-11 03:22N 24°59' E 055°04'0 0.0
2014-Apr-11 02:31N 24°59' E 055°04'0 0.0
2014-Apr-11 01:31N 24°59' E 055°04'0 0.0
2014-Apr-11 00:25N 24°59' E 055°04'0 0.0
2014-Apr-10 23:31N 24°59' E 055°04'0 0.0
2014-Apr-10 22:19N 24°59' E 055°04'1 1.6
2014-Apr-10 21:30N 24°60' E 055°03'8 9.0
2014-Apr-10 20:33N 25°06' E 054°57'7 7.0
2014-Apr-10 19:33N 25°11' E 054°51'4 4.1
2014-Apr-10 18:33N 25°15' E 054°49'1212.0
2014-Apr-10 17:33N 25°27' E 054°48'1212.0
2014-Apr-10 16:33N 25°36' E 054°57'1313.3
2014-Apr-10 15:33N 25°43' E 055°10'1313.3
2014-Apr-10 14:33N 25°50' E 055°22'1312.8
2014-Apr-10 13:33N 25°57' E 055°34'1312.3
2014-Apr-10 12:31N 26°05' E 055°45'1212.1
2014-Apr-10 11:31N 26°14' E 055°54'  

Dump ship's entire track history

sailing weather and tide predictions

Ken Orchid — A8VZ2 — position and weather